Time,TemperatureF,DewpointF,PressureIn,WindDirection,WindDirectionDegrees,WindSpeedMPH,WindSpeedGustMPH,Humidity,HourlyPrecipIn,Conditions,Clouds,dailyrainin,SoftwareType,DateUTC
2013-02-25 00:00:00,32.6,23.6,30.00,NNW,333,0.0,0.0,69,0.00,,---,0.00,VWS V14.01,2013-02-25 05:00:00,
2013-02-25 00:05:00,32.5,23.8,30.00,WNW,287,0.0,4.0,70,0.00,,---,0.00,VWS V14.01,2013-02-25 05:05:00,
2013-02-25 00:10:00,32.5,23.5,30.00,NNW,332,0.0,4.0,69,0.00,,---,0.00,VWS V14.01,2013-02-25 05:10:00,
2013-02-25 00:15:00,32.4,23.7,30.00,WNW,288,1.0,4.0,70,0.00,,---,0.00,VWS V14.01,2013-02-25 05:15:00,
2013-02-25 00:20:00,32.3,23.3,30.00,NNW,336,3.0,5.0,69,0.00,,---,0.00,VWS V14.01,2013-02-25 05:20:00,
2013-02-25 00:25:00,32.3,23.3,30.00,SW,235,0.0,5.0,69,0.00,,---,0.00,VWS V14.01,2013-02-25 05:25:00,
2013-02-25 00:30:00,32.2,23.5,30.01,WSW,252,0.0,2.0,70,0.00,,---,0.00,VWS V14.01,2013-02-25 05:30:00,
2013-02-25 00:35:00,32.1,23.8,30.01,WSW,247,2.0,3.0,71,0.00,,---,0.00,VWS V14.01,2013-02-25 05:35:00,
2013-02-25 00:40:00,31.9,23.9,30.01,SW,225,0.0,4.0,72,0.00,,---,0.00,VWS V14.01,2013-02-25 05:40:00,
2013-02-25 00:45:00,31.7,23.7,30.01,West,269,0.0,4.0,72,0.00,,---,0.00,VWS V14.01,2013-02-25 05:45:00,
2013-02-25 00:50:00,31.6,23.6,30.01,NW,315,0.0,4.0,72,0.00,,---,0.00,VWS V14.01,2013-02-25 05:50:00,
2013-02-25 00:55:00,31.5,23.2,30.02,WNW,296,0.0,4.0,71,0.00,,---,0.00,VWS V14.01,2013-02-25 05:55:00,
2013-02-25 01:00:00,31.5,23.5,30.01,NW,311,0.0,0.0,72,0.00,,---,0.00,VWS V14.01,2013-02-25 06:00:00,
2013-02-25 01:05:00,31.4,23.4,30.02,NW,311,2.0,2.0,72,0.00,,---,0.00,VWS V14.01,2013-02-25 06:05:00,
2013-02-25 01:10:00,31.3,23.3,30.01,WNW,291,0.0,5.0,72,0.00,,---,0.00,VWS V14.01,2013-02-25 06:10:00,
2013-02-25 01:15:00,31.3,23.3,30.01,NW,313,1.0,5.0,72,0.00,,---,0.00,VWS V14.01,2013-02-25 06:15:00,
2013-02-25 01:20:00,31.3,23.7,30.01,WSW,258,0.0,5.0,73,0.00,,---,0.00,VWS V14.01,2013-02-25 06:20:00,
2013-02-25 01:25:00,31.2,23.6,30.01,West,259,0.0,5.0,73,0.00,,---,0.00,VWS V14.01,2013-02-25 06:25:00,
2013-02-25 01:30:00,31.1,23.5,30.02,WNW,302,3.0,3.0,73,0.00,,---,0.00,VWS V14.01,2013-02-25 06:30:00,
2013-02-25 01:35:00,31.1,23.5,30.02,West,267,1.0,4.0,73,0.00,,---,0.00,VWS V14.01,2013-02-25 06:35:00,
2013-02-25 01:40:00,31.0,23.4,30.02,NNW,335,4.0,4.0,73,0.00,,---,0.00,VWS V14.01,2013-02-25 06:40:00,
2013-02-25 01:45:00,31.0,23.4,30.02,WSW,247,2.0,4.0,73,0.00,,---,0.00,VWS V14.01,2013-02-25 06:45:00,
2013-02-25 01:50:00,31.0,23.4,30.02,WSW,258,0.0,4.0,73,0.00,,---,0.00,VWS V14.01,2013-02-25 06:50:00,
2013-02-25 01:55:00,30.9,23.6,30.03,WSW,258,0.0,4.0,74,0.00,,---,0.00,VWS V14.01,2013-02-25 06:55:00,
2013-02-25 02:00:00,30.8,23.2,30.02,WNW,284,0.0,1.0,73,0.00,,---,0.00,VWS V14.01,2013-02-25 07:00:00,
2013-02-25 02:05:00,30.7,23.4,30.02,NNE,12,2.0,4.0,74,0.00,,---,0.00,VWS V14.01,2013-02-25 07:05:00,
2013-02-25 02:10:00,30.7,23.4,30.02,NNW,343,1.0,4.0,74,0.00,,---,0.00,VWS V14.01,2013-02-25 07:10:00,
2013-02-25 02:15:00,30.7,23.4,30.02,NW,317,0.0,4.0,74,0.00,,---,0.00,VWS V14.01,2013-02-25 07:15:00,
2013-02-25 02:20:00,30.7,23.4,30.02,WSW,257,0.0,6.0,74,0.00,,---,0.00,VWS V14.01,2013-02-25 07:20:00,
2013-02-25 02:25:00,30.7,23.4,30.03,WNW,289,4.0,6.0,74,0.00,,---,0.00,VWS V14.01,2013-02-25 07:25:00,
2013-02-25 02:30:00,30.7,23.4,30.03,NW,306,1.0,3.0,74,0.00,,---,0.00,VWS V14.01,2013-02-25 07:30:00,
2013-02-25 02:35:00,30.7,23.4,30.03,WSW,252,3.0,3.0,74,0.00,,---,0.00,VWS V14.01,2013-02-25 07:35:00,
2013-02-25 02:40:00,30.7,23.4,30.03,West,265,0.0,4.0,74,0.00,,---,0.00,VWS V14.01,2013-02-25 07:40:00,
2013-02-25 02:45:00,30.7,23.7,30.03,SSW,194,0.0,4.0,75,0.00,,---,0.00,VWS V14.01,2013-02-25 07:45:00,
2013-02-25 02:50:00,30.6,23.6,30.03,ENE,66,0.0,4.0,75,0.00,,---,0.00,VWS V14.01,2013-02-25 07:50:00,
2013-02-25 02:55:00,30.4,23.4,30.03,NE,49,0.0,4.0,75,0.00,,---,0.00,VWS V14.01,2013-02-25 07:55:00,
2013-02-25 03:00:00,30.3,23.3,30.03,NNW,340,0.0,1.0,75,0.00,,---,0.00,VWS V14.01,2013-02-25 08:00:00,
2013-02-25 03:05:00,30.2,23.6,30.03,West,259,3.0,3.0,76,0.00,,---,0.00,VWS V14.01,2013-02-25 08:05:00,
2013-02-25 03:10:00,30.1,23.5,30.03,West,269,0.0,3.0,76,0.00,,---,0.00,VWS V14.01,2013-02-25 08:10:00,
2013-02-25 03:15:00,29.9,23.3,30.03,NW,315,0.0,3.0,76,0.00,,---,0.00,VWS V14.01,2013-02-25 08:15:00,
2013-02-25 03:20:00,29.8,23.2,30.03,WNW,300,0.0,3.0,76,0.00,,---,0.00,VWS V14.01,2013-02-25 08:20:00,
2013-02-25 03:25:00,29.7,23.1,30.04,WNW,300,0.0,3.0,76,0.00,,---,0.00,VWS V14.01,2013-02-25 08:25:00,
2013-02-25 03:30:00,29.7,23.1,30.04,WNW,300,0.0,0.0,76,0.00,,---,0.00,VWS V14.01,2013-02-25 08:30:00,
2013-02-25 03:35:00,29.5,22.9,30.04,WNW,296,2.0,2.0,76,0.00,,---,0.00,VWS V14.01,2013-02-25 08:35:00,
2013-02-25 03:40:00,29.4,23.1,30.04,WSW,256,2.0,5.0,77,0.00,,---,0.00,VWS V14.01,2013-02-25 08:40:00,
2013-02-25 03:45:00,29.4,22.8,30.04,WSW,242,2.0,5.0,76,0.00,,---,0.00,VWS V14.01,2013-02-25 08:45:00,
2013-02-25 03:50:00,29.4,22.8,30.04,West,262,1.0,5.0,76,0.00,,---,0.00,VWS V14.01,2013-02-25 08:50:00,
2013-02-25 03:55:00,29.5,22.9,30.04,West,271,4.0,5.0,76,0.00,,---,0.00,VWS V14.01,2013-02-25 08:55:00,
2013-02-25 04:00:00,29.6,23.0,30.04,WNW,294,2.0,2.0,76,0.00,,---,0.00,VWS V14.01,2013-02-25 09:00:00,
2013-02-25 04:05:00,29.6,23.0,30.04,WNW,299,0.0,2.0,76,0.00,,---,0.00,VWS V14.01,2013-02-25 09:05:00,
2013-02-25 04:10:00,29.5,22.9,30.04,WNW,286,1.0,2.0,76,0.00,,---,0.00,VWS V14.01,2013-02-25 09:10:00,
2013-02-25 04:15:00,29.5,22.9,30.04,West,277,0.0,3.0,76,0.00,,---,0.00,VWS V14.01,2013-02-25 09:15:00,
2013-02-25 04:20:00,29.4,22.8,30.05,West,275,3.0,4.0,76,0.00,,---,0.00,VWS V14.01,2013-02-25 09:20:00,
2013-02-25 04:25:00,29.4,22.8,30.05,West,278,1.0,4.0,76,0.00,,---,0.00,VWS V14.01,2013-02-25 09:25:00,
2013-02-25 04:30:00,29.4,22.8,30.05,NW,323,0.0,0.0,76,0.00,,---,0.00,VWS V14.01,2013-02-25 09:30:00,
2013-02-25 04:35:00,29.3,23.0,30.05,NNW,338,0.0,3.0,77,0.00,,---,0.00,VWS V14.01,2013-02-25 09:35:00,
2013-02-25 04:40:00,29.3,23.0,30.05,WSW,252,2.0,3.0,77,0.00,,---,0.00,VWS V14.01,2013-02-25 09:40:00,
2013-02-25 04:45:00,29.3,23.0,30.05,NW,309,0.0,6.0,77,0.00,,---,0.00,VWS V14.01,2013-02-25 09:45:00,
2013-02-25 04:50:00,29.2,22.9,30.05,NW,309,0.0,6.0,77,0.00,,---,0.00,VWS V14.01,2013-02-25 09:50:00,
2013-02-25 04:55:00,29.2,22.9,30.06,West,279,2.0,6.0,77,0.00,,---,0.00,VWS V14.01,2013-02-25 09:55:00,
2013-02-25 05:00:00,29.2,22.9,30.05,NW,304,0.0,1.0,77,0.00,,---,0.00,VWS V14.01,2013-02-25 10:00:00,
2013-02-25 05:05:00,29.2,22.9,30.05,West,266,0.0,4.0,77,0.00,,---,0.00,VWS V14.01,2013-02-25 10:05:00,
2013-02-25 05:10:00,29.2,22.9,30.06,NW,306,0.0,5.0,77,0.00,,---,0.00,VWS V14.01,2013-02-25 10:10:00,
2013-02-25 05:14:00,29.2,22.9,30.06,WNW,302,1.0,5.0,77,0.00,,---,0.00,VWS V14.01,2013-02-25 10:14:00,
2013-02-25 05:19:00,29.2,22.9,30.06,WNW,300,0.0,5.0,77,0.00,,---,0.00,VWS V14.01,2013-02-25 10:19:00,
2013-02-25 05:24:00,29.1,22.8,30.06,NW,305,0.0,5.0,77,0.00,,---,0.00,VWS V14.01,2013-02-25 10:24:00,
2013-02-25 05:29:00,29.0,23.0,30.06,NW,317,0.0,0.0,78,0.00,,---,0.00,VWS V14.01,2013-02-25 10:29:00,
2013-02-25 05:30:00,29.0,23.0,30.06,NW,317,0.0,5.0,78,0.00,,---,0.00,VWS V14.01,2013-02-25 10:30:00,
2013-02-25 05:34:00,29.0,22.7,30.06,West,267,1.0,3.0,77,0.00,,---,0.00,VWS V14.01,2013-02-25 10:34:00,
2013-02-25 05:39:00,28.9,22.9,30.06,NW,324,2.0,4.0,78,0.00,,---,0.00,VWS V14.01,2013-02-25 10:39:00,
2013-02-25 05:44:00,28.9,22.9,30.07,West,259,0.0,5.0,78,0.00,,---,0.00,VWS V14.01,2013-02-25 10:44:00,
2013-02-25 05:49:00,28.9,22.9,30.07,WSW,239,0.0,5.0,78,0.00,,---,0.00,VWS V14.01,2013-02-25 10:49:00,
2013-02-25 05:54:00,28.8,22.8,30.07,West,276,2.0,5.0,78,0.00,,---,0.00,VWS V14.01,2013-02-25 10:54:00,
2013-02-25 05:59:00,28.8,22.8,30.07,NNW,327,0.0,0.0,78,0.00,,---,0.00,VWS V14.01,2013-02-25 10:59:00,
2013-02-25 06:00:00,28.8,22.8,30.07,NNW,327,0.0,5.0,78,0.00,,---,0.00,VWS V14.01,2013-02-25 11:00:00,
2013-02-25 06:04:00,28.7,22.7,30.08,NW,319,0.0,2.0,78,0.00,,---,0.00,VWS V14.01,2013-02-25 11:04:00,
2013-02-25 06:09:00,28.7,22.7,30.07,WNW,292,0.0,6.0,78,0.00,,---,0.00,VWS V14.01,2013-02-25 11:09:00,
2013-02-25 06:14:00,28.7,22.7,30.08,WNW,302,0.0,6.0,78,0.00,,---,0.00,VWS V14.01,2013-02-25 11:14:00,
2013-02-25 06:19:00,28.7,22.7,30.08,WSW,258,1.0,6.0,78,0.00,,---,0.00,VWS V14.01,2013-02-25 11:19:00,
2013-02-25 06:24:00,28.7,23.0,30.09,WNW,289,0.0,6.0,79,0.00,,---,0.00,VWS V14.01,2013-02-25 11:24:00,
2013-02-25 06:29:00,28.6,22.9,30.09,West,279,3.0,3.0,79,0.00,,---,0.00,VWS V14.01,2013-02-25 11:29:00,
2013-02-25 06:30:00,28.6,22.9,30.09,WNW,296,1.0,6.0,79,0.00,,---,0.00,VWS V14.01,2013-02-25 11:30:00,
2013-02-25 06:34:00,28.6,22.9,30.09,NW,315,0.0,3.0,79,0.00,,---,0.00,VWS V14.01,2013-02-25 11:34:00,
2013-02-25 06:39:00,28.5,22.8,30.09,NW,304,0.0,3.0,79,0.00,,---,0.00,VWS V14.01,2013-02-25 11:39:00,
2013-02-25 06:44:00,28.5,22.8,30.09,West,265,0.0,3.0,79,0.00,,---,0.00,VWS V14.01,2013-02-25 11:44:00,
2013-02-25 06:49:00,28.5,22.8,30.09,WSW,254,0.0,3.0,79,0.00,,---,0.00,VWS V14.01,2013-02-25 11:49:00,
2013-02-25 06:54:00,28.5,22.8,30.09,NW,307,0.0,3.0,79,0.00,,---,0.00,VWS V14.01,2013-02-25 11:54:00,
2013-02-25 06:59:00,28.6,23.2,30.10,WNW,300,0.0,0.0,80,0.00,,---,0.00,VWS V14.01,2013-02-25 11:59:00,
2013-02-25 07:00:00,28.6,23.2,30.10,WNW,300,0.0,5.0,80,0.00,,---,0.00,VWS V14.01,2013-02-25 12:00:00,
2013-02-25 07:04:00,28.7,23.0,30.10,WNW,302,0.0,3.0,79,0.00,,---,0.00,VWS V14.01,2013-02-25 12:04:00,
2013-02-25 07:09:00,28.8,23.1,30.10,WSW,254,0.0,4.0,79,0.00,,---,0.00,VWS V14.01,2013-02-25 12:09:00,
2013-02-25 07:14:00,29.0,23.3,30.10,WNW,282,1.0,4.0,79,0.00,,---,0.00,VWS V14.01,2013-02-25 12:14:00,
2013-02-25 07:19:00,29.2,23.5,30.10,WSW,246,0.0,6.0,79,0.00,,---,0.00,VWS V14.01,2013-02-25 12:19:00,
2013-02-25 07:24:00,29.4,23.4,30.10,North,350,1.0,6.0,78,0.00,,---,0.00,VWS V14.01,2013-02-25 12:24:00,
2013-02-25 07:29:00,29.7,23.7,30.10,West,267,3.0,6.0,78,0.00,,---,0.00,VWS V14.01,2013-02-25 12:29:00,
2013-02-25 07:30:00,29.7,23.7,30.10,West,279,3.0,6.0,78,0.00,,---,0.00,VWS V14.01,2013-02-25 12:30:00,
2013-02-25 07:34:00,30.1,24.1,30.10,NW,311,1.0,4.0,78,0.00,,---,0.00,VWS V14.01,2013-02-25 12:34:00,
2013-02-25 07:39:00,30.4,24.1,30.11,West,260,2.0,4.0,77,0.00,,---,0.00,VWS V14.01,2013-02-25 12:39:00,
2013-02-25 07:44:00,30.8,24.1,30.11,WNW,286,1.0,6.0,76,0.00,,---,0.00,VWS V14.01,2013-02-25 12:44:00,
2013-02-25 07:49:00,31.2,24.5,30.11,NNE,33,3.0,6.0,76,0.00,,---,0.00,VWS V14.01,2013-02-25 12:49:00,
2013-02-25 07:54:00,31.6,24.6,30.10,West,275,0.0,6.0,75,0.00,,---,0.00,VWS V14.01,2013-02-25 12:54:00,
2013-02-25 08:00:00,31.9,24.6,30.11,WSW,253,3.0,3.0,74,0.00,,---,0.00,VWS V14.01,2013-02-25 13:00:00,
2013-02-25 08:05:00,32.3,25.0,30.11,NW,323,1.0,5.0,74,0.00,,---,0.00,VWS V14.01,2013-02-25 13:05:00,
2013-02-25 08:10:00,32.7,25.0,30.11,WNW,293,1.0,5.0,73,0.00,,---,0.00,VWS V14.01,2013-02-25 13:10:00,
2013-02-25 08:15:00,33.3,25.3,30.11,NNW,329,3.0,6.0,72,0.00,,---,0.00,VWS V14.01,2013-02-25 13:15:00,
2013-02-25 08:20:00,34.0,25.6,30.11,NNW,344,5.0,6.0,71,0.00,,---,0.00,VWS V14.01,2013-02-25 13:20:00,
2013-02-25 08:25:00,34.5,25.7,30.11,West,272,3.0,7.0,70,0.00,,---,0.00,VWS V14.01,2013-02-25 13:25:00,
2013-02-25 08:30:00,34.9,25.8,30.11,NE,53,3.0,5.0,69,0.00,,---,0.00,VWS V14.01,2013-02-25 13:30:00,
2013-02-25 08:35:00,35.3,26.2,30.11,NNW,333,3.0,5.0,69,0.00,,---,0.00,VWS V14.01,2013-02-25 13:35:00,
2013-02-25 08:40:00,35.8,25.9,30.11,NNW,346,2.0,9.0,67,0.00,,---,0.00,VWS V14.01,2013-02-25 13:40:00,
2013-02-25 08:45:00,36.4,26.5,30.11,NNE,22,1.0,9.0,67,0.00,,---,0.00,VWS V14.01,2013-02-25 13:45:00,
2013-02-25 08:51:00,36.8,26.5,30.10,NNE,22,3.0,9.0,66,0.00,,---,0.00,VWS V14.01,2013-02-25 13:51:00,
2013-02-25 08:56:00,37.1,26.8,30.10,NNW,346,2.0,11.0,66,0.00,,---,0.00,VWS V14.01,2013-02-25 13:56:00,
2013-02-25 09:00:00,37.5,26.8,30.10,NW,316,1.0,11.0,65,0.00,,---,0.00,VWS V14.01,2013-02-25 14:00:00,
2013-02-25 09:01:00,37.6,26.9,30.11,North,355,3.0,6.0,65,0.00,,---,0.00,VWS V14.01,2013-02-25 14:01:00,
2013-02-25 09:06:00,38.0,27.3,30.11,WNW,302,5.0,6.0,65,0.00,,---,0.00,VWS V14.01,2013-02-25 14:06:00,
2013-02-25 09:11:00,38.4,27.3,30.11,NNE,28,1.0,9.0,64,0.00,,---,0.00,VWS V14.01,2013-02-25 14:11:00,
2013-02-25 09:16:00,38.9,27.8,30.11,North,5,2.0,9.0,64,0.00,,---,0.00,VWS V14.01,2013-02-25 14:16:00,
2013-02-25 09:21:00,39.3,27.8,30.11,NNE,26,3.0,9.0,63,0.00,,---,0.00,VWS V14.01,2013-02-25 14:21:00,
2013-02-25 09:26:00,39.6,28.1,30.11,NNE,23,2.0,11.0,63,0.00,,---,0.00,VWS V14.01,2013-02-25 14:26:00,
2013-02-25 09:30:00,39.9,29.1,30.11,North,355,4.0,11.0,65,0.00,,---,0.00,VWS V14.01,2013-02-25 14:30:00,
2013-02-25 09:31:00,40.1,28.1,30.11,SE,145,2.0,9.0,62,0.00,,---,0.00,VWS V14.01,2013-02-25 14:31:00,
2013-02-25 09:36:00,40.4,28.4,30.11,South,191,3.0,9.0,62,0.00,,---,0.00,VWS V14.01,2013-02-25 14:36:00,
2013-02-25 09:41:00,40.5,28.5,30.11,NNW,344,4.0,9.0,62,0.00,,---,0.00,VWS V14.01,2013-02-25 14:41:00,
2013-02-25 09:46:00,40.7,28.7,30.11,NE,46,6.0,9.0,62,0.00,,---,0.00,VWS V14.01,2013-02-25 14:46:00,
2013-02-25 09:51:00,40.9,28.5,30.11,South,177,1.0,10.0,61,0.00,,---,0.00,VWS V14.01,2013-02-25 14:51:00,
2013-02-25 09:56:00,41.2,29.2,30.11,North,355,8.0,10.0,62,0.00,,---,0.00,VWS V14.01,2013-02-25 14:56:00,
2013-02-25 10:00:00,41.3,28.5,30.11,ENE,69,1.0,10.0,60,0.00,,---,0.00,VWS V14.01,2013-02-25 15:00:00,
2013-02-25 10:01:00,41.2,28.4,30.11,NE,56,7.0,10.0,60,0.00,,---,0.00,VWS V14.01,2013-02-25 15:01:00,
2013-02-25 10:06:00,41.2,28.4,30.12,NNE,32,2.0,10.0,60,0.00,,---,0.00,VWS V14.01,2013-02-25 15:06:00,
2013-02-25 10:11:00,41.5,28.7,30.12,North,5,2.0,10.0,60,0.00,,---,0.00,VWS V14.01,2013-02-25 15:11:00,
2013-02-25 10:16:00,41.6,28.8,30.12,NE,38,8.0,10.0,60,0.00,,---,0.00,VWS V14.01,2013-02-25 15:16:00,
2013-02-25 10:21:00,41.9,29.0,30.12,NE,34,4.0,10.0,60,0.00,,---,0.00,VWS V14.01,2013-02-25 15:21:00,
2013-02-25 10:26:00,42.2,28.9,30.13,ENE,72,1.0,10.0,59,0.00,,---,0.00,VWS V14.01,2013-02-25 15:26:00,
2013-02-25 10:30:00,42.4,29.1,30.13,NW,325,3.0,10.0,59,0.00,,---,0.00,VWS V14.01,2013-02-25 15:30:00,
2013-02-25 10:31:00,42.5,29.2,30.13,NE,36,2.0,4.0,59,0.00,,---,0.00,VWS V14.01,2013-02-25 15:31:00,
2013-02-25 10:36:00,42.7,29.0,30.12,NNW,342,5.0,9.0,58,0.00,,---,0.00,VWS V14.01,2013-02-25 15:36:00,
2013-02-25 10:41:00,42.9,29.2,30.12,WNW,288,3.0,9.0,58,0.00,,---,0.00,VWS V14.01,2013-02-25 15:41:00,
2013-02-25 10:46:00,43.2,29.0,30.12,NNE,16,3.0,9.0,57,0.00,,---,0.00,VWS V14.01,2013-02-25 15:46:00,
2013-02-25 10:51:00,43.3,29.1,30.12,North,5,2.0,9.0,57,0.00,,---,0.00,VWS V14.01,2013-02-25 15:51:00,
2013-02-25 10:56:00,43.8,30.0,30.12,WSW,244,0.0,9.0,58,0.00,,---,0.00,VWS V14.01,2013-02-25 15:56:00,
2013-02-25 11:00:00,44.1,29.4,30.12,NE,34,2.0,9.0,56,0.00,,---,0.00,VWS V14.01,2013-02-25 16:00:00,
2013-02-25 11:01:00,44.3,30.0,30.12,NNE,26,5.0,5.0,57,0.00,,---,0.00,VWS V14.01,2013-02-25 16:01:00,
2013-02-25 11:06:00,44.6,29.5,30.13,SSE,161,0.0,5.0,55,0.00,,---,0.00,VWS V14.01,2013-02-25 16:06:00,
2013-02-25 11:11:00,44.7,29.5,30.12,ESE,106,0.0,6.0,55,0.00,,---,0.00,VWS V14.01,2013-02-25 16:11:00,
2013-02-25 11:16:00,44.9,29.3,30.12,NW,318,1.0,6.0,54,0.00,,---,0.00,VWS V14.01,2013-02-25 16:16:00,
2013-02-25 11:21:00,45.2,29.6,30.13,NW,325,2.0,6.0,54,0.00,,---,0.00,VWS V14.01,2013-02-25 16:21:00,
2013-02-25 11:26:00,45.4,29.3,30.13,NW,306,3.0,7.0,53,0.00,,---,0.00,VWS V14.01,2013-02-25 16:26:00,
2013-02-25 11:30:00,45.4,28.8,30.13,NNW,327,1.0,8.0,52,0.00,,---,0.00,VWS V14.01,2013-02-25 16:30:00,
2013-02-25 11:31:00,45.4,29.3,30.13,NE,37,1.0,3.0,53,0.00,,---,0.00,VWS V14.01,2013-02-25 16:31:00,
2013-02-25 11:36:00,45.5,28.9,30.13,ENE,59,2.0,8.0,52,0.00,,---,0.00,VWS V14.01,2013-02-25 16:36:00,
2013-02-25 11:41:00,45.6,29.0,30.13,NW,315,2.0,8.0,52,0.00,,---,0.00,VWS V14.01,2013-02-25 16:41:00,
2013-02-25 11:46:00,45.8,28.7,30.13,NE,37,3.0,8.0,51,0.00,,---,0.00,VWS V14.01,2013-02-25 16:46:00,
2013-02-25 11:51:00,46.3,28.7,30.13,ENE,76,2.0,8.0,50,0.00,,---,0.00,VWS V14.01,2013-02-25 16:51:00,
2013-02-25 11:56:00,46.3,28.7,30.13,East,83,2.0,8.0,50,0.00,,---,0.00,VWS V14.01,2013-02-25 16:56:00,
2013-02-25 12:00:00,46.7,29.1,30.13,WNW,292,2.0,8.0,50,0.00,,---,0.00,VWS V14.01,2013-02-25 17:00:00,
2013-02-25 12:01:00,46.8,28.2,30.13,NNE,32,0.0,2.0,48,0.00,,---,0.00,VWS V14.01,2013-02-25 17:01:00,
2013-02-25 12:06:00,47.2,29.0,30.13,ESE,111,2.0,6.0,49,0.00,,---,0.00,VWS V14.01,2013-02-25 17:06:00,
2013-02-25 12:11:00,47.0,28.9,30.12,East,82,0.0,6.0,49,0.00,,---,0.00,VWS V14.01,2013-02-25 17:11:00,
2013-02-25 12:16:00,47.1,28.9,30.12,WSW,248,3.0,6.0,49,0.00,,---,0.00,VWS V14.01,2013-02-25 17:16:00,
2013-02-25 12:21:00,47.2,29.0,30.12,NNE,15,2.0,6.0,49,0.00,,---,0.00,VWS V14.01,2013-02-25 17:21:00,
2013-02-25 12:26:00,46.7,28.6,30.12,NE,44,4.0,6.0,49,0.00,,---,0.00,VWS V14.01,2013-02-25 17:26:00,
2013-02-25 12:30:00,46.8,29.6,30.12,NW,311,2.0,6.0,51,0.00,,---,0.00,VWS V14.01,2013-02-25 17:30:00,
2013-02-25 12:31:00,46.8,28.7,30.12,NNW,344,1.0,6.0,49,0.00,,---,0.00,VWS V14.01,2013-02-25 17:31:00,
2013-02-25 12:36:00,46.8,28.2,30.12,WSW,252,1.0,6.0,48,0.00,,---,0.00,VWS V14.01,2013-02-25 17:36:00,
2013-02-25 12:41:00,47.1,28.4,30.12,NNE,14,0.0,6.0,48,0.00,,---,0.00,VWS V14.01,2013-02-25 17:41:00,
2013-02-25 12:46:00,47.7,30.0,30.12,SE,143,0.0,6.0,50,0.00,,---,0.00,VWS V14.01,2013-02-25 17:46:00,
2013-02-25 12:51:00,47.6,29.9,30.12,SSE,149,0.0,6.0,50,0.00,,---,0.00,VWS V14.01,2013-02-25 17:51:00,
2013-02-25 12:56:00,46.9,30.2,30.12,ESE,110,2.0,6.0,52,0.00,,---,0.00,VWS V14.01,2013-02-25 17:56:00,
2013-02-25 13:00:00,46.0,29.8,30.12,South,179,1.0,6.0,53,0.00,,---,0.00,VWS V14.01,2013-02-25 18:00:00,
2013-02-25 13:01:00,45.7,30.0,30.12,ESE,116,0.0,2.0,54,0.00,,---,0.00,VWS V14.01,2013-02-25 18:01:00,
2013-02-25 13:06:00,45.1,30.4,30.13,NNW,327,1.0,3.0,56,0.00,,---,0.00,VWS V14.01,2013-02-25 18:06:00,
2013-02-25 13:11:00,44.9,30.6,30.13,ESE,121,1.0,3.0,57,0.00,,---,0.00,VWS V14.01,2013-02-25 18:11:00,
2013-02-25 13:16:00,44.9,30.6,30.13,SSW,200,3.0,5.0,57,0.00,,---,0.00,VWS V14.01,2013-02-25 18:16:00,
2013-02-25 13:21:00,44.3,30.0,30.12,South,178,3.0,6.0,57,0.00,,---,0.00,VWS V14.01,2013-02-25 18:21:00,
2013-02-25 13:26:00,43.6,30.2,30.12,SSE,160,2.0,6.0,59,0.00,,---,0.00,VWS V14.01,2013-02-25 18:26:00,
2013-02-25 13:30:00,43.5,31.0,30.12,ESE,113,1.0,6.0,61,0.00,,---,0.00,VWS V14.01,2013-02-25 18:30:00,
2013-02-25 13:31:00,43.5,31.4,30.12,SSE,151,1.0,3.0,62,0.00,,---,0.00,VWS V14.01,2013-02-25 18:31:00,
2013-02-25 13:36:00,43.7,30.7,30.12,SE,142,5.0,6.0,60,0.00,,---,0.00,VWS V14.01,2013-02-25 18:36:00,
2013-02-25 13:41:00,43.8,30.0,30.12,ESE,108,1.0,7.0,58,0.00,,---,0.00,VWS V14.01,2013-02-25 18:41:00,
2013-02-25 13:46:00,44.3,31.3,30.12,East,82,5.0,7.0,60,0.00,,---,0.00,VWS V14.01,2013-02-25 18:46:00,
2013-02-25 13:51:00,44.2,30.8,30.12,SSE,158,5.0,7.0,59,0.00,,---,0.00,VWS V14.01,2013-02-25 18:51:00,
2013-02-25 13:56:00,44.0,31.4,30.12,SE,138,0.0,7.0,61,0.00,,---,0.00,VWS V14.01,2013-02-25 18:56:00,
2013-02-25 14:00:00,44.1,31.5,30.12,South,191,2.0,7.0,61,0.00,,---,0.00,VWS V14.01,2013-02-25 19:00:00,
2013-02-25 14:01:00,44.1,31.5,30.12,North,5,0.0,3.0,61,0.00,,---,0.00,VWS V14.01,2013-02-25 19:01:00,
2013-02-25 14:06:00,44.0,31.0,30.12,SE,146,2.0,6.0,60,0.00,,---,0.00,VWS V14.01,2013-02-25 19:06:00,
2013-02-25 14:11:00,43.9,30.9,30.13,SSE,159,0.0,6.0,60,0.00,,---,0.00,VWS V14.01,2013-02-25 19:11:00,
2013-02-25 14:16:00,43.9,30.9,30.14,WSW,241,2.0,6.0,60,0.00,,---,0.00,VWS V14.01,2013-02-25 19:16:00,
2013-02-25 14:21:00,43.9,30.1,30.14,SE,143,2.0,6.0,58,0.00,,---,0.00,VWS V14.01,2013-02-25 19:21:00,
2013-02-25 14:26:00,43.7,29.9,30.14,SSE,147,3.0,7.0,58,0.00,,---,0.00,VWS V14.01,2013-02-25 19:26:00,
2013-02-25 14:30:00,43.6,29.8,30.14,WNW,291,0.0,7.0,58,0.00,,---,0.00,VWS V14.01,2013-02-25 19:30:00,
2013-02-25 14:31:00,43.6,30.6,30.13,SE,140,1.0,2.0,60,0.00,,---,0.00,VWS V14.01,2013-02-25 19:31:00,
2013-02-25 14:36:00,43.7,29.9,30.13,SSE,162,1.0,7.0,58,0.00,,---,0.00,VWS V14.01,2013-02-25 19:36:00,
2013-02-25 14:41:00,43.7,30.7,30.13,SE,134,0.0,7.0,60,0.00,,---,0.00,VWS V14.01,2013-02-25 19:41:00,
2013-02-25 14:46:00,44.0,31.0,30.13,WSW,252,1.0,7.0,60,0.00,,---,0.00,VWS V14.01,2013-02-25 19:46:00,
2013-02-25 14:51:00,44.4,31.0,30.13,SE,130,3.0,7.0,59,0.00,,---,0.00,VWS V14.01,2013-02-25 19:51:00,
2013-02-25 14:56:00,44.5,30.7,30.13,East,100,1.0,8.0,58,0.00,,---,0.00,VWS V14.01,2013-02-25 19:56:00,
2013-02-25 15:00:00,44.6,30.8,30.13,ESE,119,0.0,8.0,58,0.00,,---,0.00,VWS V14.01,2013-02-25 20:00:00,
2013-02-25 15:01:00,44.6,30.8,30.13,SW,236,2.0,4.0,58,0.00,,---,0.00,VWS V14.01,2013-02-25 20:01:00,
2013-02-25 15:06:00,44.4,30.1,30.13,West,264,1.0,6.0,57,0.00,,---,0.00,VWS V14.01,2013-02-25 20:06:00,
2013-02-25 15:11:00,44.2,30.8,30.13,SSE,153,1.0,6.0,59,0.00,,---,0.00,VWS V14.01,2013-02-25 20:11:00,
2013-02-25 15:16:00,44.2,30.8,30.13,SE,144,4.0,6.0,59,0.00,,---,0.00,VWS V14.01,2013-02-25 20:16:00,
2013-02-25 15:21:00,44.2,30.8,30.13,SSW,203,0.0,6.0,59,0.00,,---,0.00,VWS V14.01,2013-02-25 20:21:00,
2013-02-25 15:26:00,44.3,30.9,30.13,South,173,6.0,6.0,59,0.00,,---,0.00,VWS V14.01,2013-02-25 20:26:00,
2013-02-25 15:30:00,44.0,31.0,30.13,East,82,1.0,6.0,60,0.00,,---,0.00,VWS V14.01,2013-02-25 20:30:00,
2013-02-25 15:31:00,44.0,31.4,30.13,SE,146,2.0,3.0,61,0.00,,---,0.00,VWS V14.01,2013-02-25 20:31:00,
2013-02-25 15:35:00,43.6,30.6,30.13,ESE,120,1.0,7.0,60,0.00,,---,0.00,VWS V14.01,2013-02-25 20:35:00,
2013-02-25 15:40:00,43.3,30.8,30.13,WSW,246,1.0,7.0,61,0.00,,---,0.00,VWS V14.01,2013-02-25 20:40:00,
2013-02-25 15:45:00,42.9,31.2,30.14,SSE,148,2.0,7.0,63,0.00,,---,0.00,VWS V14.01,2013-02-25 20:45:00,
2013-02-25 15:50:00,42.6,30.9,30.13,WSW,242,0.0,7.0,63,0.00,,---,0.00,VWS V14.01,2013-02-25 20:50:00,
2013-02-25 15:55:00,42.4,31.1,30.13,ESE,113,0.0,8.0,64,0.00,,---,0.00,VWS V14.01,2013-02-25 20:55:00,
2013-02-25 16:00:00,42.2,31.3,30.13,South,190,0.0,4.0,65,0.00,,---,0.00,VWS V14.01,2013-02-25 21:00:00,
2013-02-25 16:05:00,42.0,30.7,30.13,SSE,165,0.0,5.0,64,0.00,,---,0.00,VWS V14.01,2013-02-25 21:05:00,
2013-02-25 16:10:00,41.8,30.5,30.13,SE,128,1.0,5.0,64,0.00,,---,0.00,VWS V14.01,2013-02-25 21:10:00,
2013-02-25 16:15:00,41.7,30.8,30.13,ESE,121,2.0,5.0,65,0.00,,---,0.00,VWS V14.01,2013-02-25 21:15:00,
2013-02-25 16:20:00,41.6,30.7,30.13,SSW,204,0.0,8.0,65,0.00,,---,0.00,VWS V14.01,2013-02-25 21:20:00,
2013-02-25 16:25:00,41.4,30.5,30.13,SW,224,3.0,8.0,65,0.00,,---,0.00,VWS V14.01,2013-02-25 21:25:00,
2013-02-25 16:30:00,41.2,30.3,30.13,South,178,2.0,3.0,65,0.00,,---,0.00,VWS V14.01,2013-02-25 21:30:00,
2013-02-25 16:35:00,41.0,30.5,30.13,SE,131,3.0,4.0,66,0.00,,---,0.00,VWS V14.01,2013-02-25 21:35:00,
2013-02-25 16:40:00,40.7,30.6,30.13,SE,136,0.0,5.0,67,0.00,,---,0.00,VWS V14.01,2013-02-25 21:40:00,
2013-02-25 16:45:00,40.6,30.9,30.13,SE,140,0.0,5.0,68,0.00,,---,0.00,VWS V14.01,2013-02-25 21:45:00,
2013-02-25 16:50:00,40.5,31.1,30.13,South,175,0.0,5.0,69,0.00,,---,0.00,VWS V14.01,2013-02-25 21:50:00,
2013-02-25 16:55:00,40.3,31.0,30.13,SSW,203,3.0,5.0,69,0.00,,---,0.00,VWS V14.01,2013-02-25 21:55:00,
2013-02-25 17:00:00,40.2,30.9,30.14,SSW,205,0.0,1.0,69,0.00,,---,0.00,VWS V14.01,2013-02-25 22:00:00,
2013-02-25 17:05:00,40.0,29.9,30.14,SSE,153,0.0,3.0,67,0.00,,---,0.00,VWS V14.01,2013-02-25 22:05:00,
2013-02-25 17:10:00,39.8,30.1,30.14,SE,137,0.0,4.0,68,0.00,,---,0.00,VWS V14.01,2013-02-25 22:10:00,
2013-02-25 17:15:00,39.6,30.3,30.14,South,187,0.0,4.0,69,0.00,,---,0.00,VWS V14.01,2013-02-25 22:15:00,
2013-02-25 17:20:00,39.4,30.4,30.14,SE,144,0.0,4.0,70,0.00,,---,0.00,VWS V14.01,2013-02-25 22:20:00,
2013-02-25 17:25:00,39.2,30.6,30.14,SE,144,0.0,4.0,71,0.00,,---,0.00,VWS V14.01,2013-02-25 22:25:00,
2013-02-25 17:30:00,39.0,30.8,30.15,SE,145,0.0,1.0,72,0.00,,---,0.00,VWS V14.01,2013-02-25 22:30:00,
2013-02-25 17:35:00,38.7,30.8,30.15,SE,145,0.0,1.0,73,0.00,,---,0.00,VWS V14.01,2013-02-25 22:35:00,
2013-02-25 17:40:00,38.5,30.6,30.15,SE,145,0.0,1.0,73,0.00,,---,0.00,VWS V14.01,2013-02-25 22:40:00,
2013-02-25 17:45:00,38.2,30.7,30.15,SE,145,0.0,1.0,74,0.00,,---,0.00,VWS V14.01,2013-02-25 22:45:00,
2013-02-25 17:50:00,37.9,30.4,30.16,SE,145,0.0,1.0,74,0.00,,---,0.00,VWS V14.01,2013-02-25 22:50:00,
2013-02-25 17:55:00,37.5,30.3,30.16,SE,145,0.0,1.0,75,0.00,,---,0.00,VWS V14.01,2013-02-25 22:55:00,
2013-02-25 18:00:00,37.0,30.1,30.16,SE,145,0.0,0.0,76,0.00,,---,0.00,VWS V14.01,2013-02-25 23:00:00,
2013-02-25 18:05:00,36.6,29.8,30.16,SE,145,0.0,0.0,76,0.00,,---,0.00,VWS V14.01,2013-02-25 23:05:00,
2013-02-25 18:10:00,36.2,29.7,30.16,SE,145,0.0,0.0,77,0.00,,---,0.00,VWS V14.01,2013-02-25 23:10:00,
2013-02-25 18:15:00,35.7,29.5,30.16,SE,145,0.0,0.0,78,0.00,,---,0.00,VWS V14.01,2013-02-25 23:15:00,
2013-02-25 18:20:00,35.3,29.5,30.17,SE,145,0.0,0.0,79,0.00,,---,0.00,VWS V14.01,2013-02-25 23:20:00,
2013-02-25 18:25:00,34.9,29.1,30.17,SE,145,0.0,0.0,79,0.00,,---,0.00,VWS V14.01,2013-02-25 23:25:00,
2013-02-25 18:30:00,34.5,29.3,30.17,SE,145,0.0,0.0,81,0.00,,---,0.00,VWS V14.01,2013-02-25 23:30:00,
2013-02-25 18:35:00,34.2,29.0,30.17,SE,145,0.0,0.0,81,0.00,,---,0.00,VWS V14.01,2013-02-25 23:35:00,
2013-02-25 18:40:00,33.9,29.0,30.18,SE,145,0.0,0.0,82,0.00,,---,0.00,VWS V14.01,2013-02-25 23:40:00,
2013-02-25 18:45:00,33.7,28.8,30.17,SE,145,0.0,0.0,82,0.00,,---,0.00,VWS V14.01,2013-02-25 23:45:00,
2013-02-25 18:50:00,33.4,28.8,30.18,SE,145,0.0,0.0,83,0.00,,---,0.00,VWS V14.01,2013-02-25 23:50:00,
2013-02-25 18:55:00,33.1,28.5,30.18,SE,145,0.0,0.0,83,0.00,,---,0.00,VWS V14.01,2013-02-25 23:55:00,
2013-02-25 19:00:00,32.8,28.5,30.18,SE,145,0.0,0.0,84,0.00,,---,0.00,VWS V14.01,2013-02-26 00:00:00,
2013-02-25 19:05:00,32.5,28.2,30.18,SE,145,0.0,0.0,84,0.00,,---,0.00,VWS V14.01,2013-02-26 00:05:00,
2013-02-25 19:10:00,32.3,28.0,30.18,SE,145,0.0,0.0,84,0.00,,---,0.00,VWS V14.01,2013-02-26 00:10:00,
2013-02-25 19:15:00,32.0,28.0,30.18,SE,145,0.0,0.0,85,0.00,,---,0.00,VWS V14.01,2013-02-26 00:15:00,
2013-02-25 19:20:00,31.8,27.8,30.18,SE,145,0.0,0.0,85,0.00,,---,0.00,VWS V14.01,2013-02-26 00:20:00,
2013-02-25 19:25:00,31.5,27.5,30.18,SE,145,0.0,0.0,85,0.00,,---,0.00,VWS V14.01,2013-02-26 00:25:00,
2013-02-25 19:30:00,31.4,27.7,30.18,SE,145,0.0,0.0,86,0.00,,---,0.00,VWS V14.01,2013-02-26 00:30:00,
2013-02-25 19:35:00,31.1,27.4,30.19,SE,145,0.0,0.0,86,0.00,,---,0.00,VWS V14.01,2013-02-26 00:35:00,
2013-02-25 19:40:00,30.9,27.2,30.19,SE,145,0.0,0.0,86,0.00,,---,0.00,VWS V14.01,2013-02-26 00:40:00,
2013-02-25 19:45:00,30.7,27.3,30.19,SE,145,0.0,0.0,87,0.00,,---,0.00,VWS V14.01,2013-02-26 00:45:00,
2013-02-25 19:50:00,30.5,27.1,30.19,SE,145,0.0,0.0,87,0.00,,---,0.00,VWS V14.01,2013-02-26 00:50:00,
2013-02-25 19:55:00,30.4,27.3,30.19,SE,145,0.0,0.0,88,0.00,,---,0.00,VWS V14.01,2013-02-26 00:55:00,
2013-02-25 20:00:00,30.2,27.1,30.19,SE,145,0.0,0.0,88,0.00,,---,0.00,VWS V14.01,2013-02-26 01:00:00,
2013-02-25 20:05:00,30.1,27.0,30.19,SE,145,0.0,0.0,88,0.00,,---,0.00,VWS V14.01,2013-02-26 01:05:00,
2013-02-25 20:10:00,29.9,26.8,30.20,SE,145,0.0,0.0,88,0.00,,---,0.00,VWS V14.01,2013-02-26 01:10:00,
2013-02-25 20:15:00,29.8,27.0,30.20,SE,145,0.0,0.0,89,0.00,,---,0.00,VWS V14.01,2013-02-26 01:15:00,
2013-02-25 20:20:00,29.8,27.2,30.20,SE,145,0.0,0.0,90,0.00,,---,0.00,VWS V14.01,2013-02-26 01:20:00,
2013-02-25 20:25:00,29.7,27.1,30.20,SE,145,0.0,0.0,90,0.00,,---,0.00,VWS V14.01,2013-02-26 01:25:00,
2013-02-25 20:30:00,29.6,27.0,30.21,SE,145,0.0,0.0,90,0.00,,---,0.00,VWS V14.01,2013-02-26 01:30:00,
2013-02-25 20:35:00,29.5,26.9,30.21,SE,145,0.0,0.0,90,0.00,,---,0.00,VWS V14.01,2013-02-26 01:35:00,
2013-02-25 20:40:00,29.4,26.8,30.21,SE,145,0.0,0.0,90,0.00,,---,0.00,VWS V14.01,2013-02-26 01:40:00,
2013-02-25 20:45:00,29.4,26.8,30.21,SE,145,0.0,0.0,90,0.00,,---,0.00,VWS V14.01,2013-02-26 01:45:00,
2013-02-25 20:50:00,29.3,27.0,30.21,SE,145,0.0,0.0,91,0.00,,---,0.00,VWS V14.01,2013-02-26 01:50:00,
2013-02-25 20:55:00,29.2,26.9,30.21,SE,145,0.0,0.0,91,0.00,,---,0.00,VWS V14.01,2013-02-26 01:55:00,
2013-02-25 21:00:00,29.2,26.9,30.21,SE,145,0.0,0.0,91,0.00,,---,0.00,VWS V14.01,2013-02-26 02:00:00,
2013-02-25 21:05:00,29.1,26.8,30.21,SE,145,0.0,0.0,91,0.00,,---,0.00,VWS V14.01,2013-02-26 02:05:00,
2013-02-25 21:10:00,29.0,26.7,30.21,SE,145,0.0,0.0,91,0.00,,---,0.00,VWS V14.01,2013-02-26 02:10:00,
2013-02-25 21:15:00,29.0,27.0,30.21,SE,145,0.0,0.0,92,0.00,,---,0.00,VWS V14.01,2013-02-26 02:15:00,
2013-02-25 21:20:00,29.0,27.0,30.21,SE,145,0.0,0.0,92,0.00,,---,0.00,VWS V14.01,2013-02-26 02:20:00,
2013-02-25 21:25:00,29.0,27.0,30.21,SE,145,0.0,0.0,92,0.00,,---,0.00,VWS V14.01,2013-02-26 02:25:00,
2013-02-25 21:30:00,29.0,27.0,30.21,SE,145,0.0,0.0,92,0.00,,---,0.00,VWS V14.01,2013-02-26 02:30:00,
2013-02-25 21:35:00,29.0,27.0,30.21,SE,145,0.0,0.0,92,0.00,,---,0.00,VWS V14.01,2013-02-26 02:35:00,
2013-02-25 21:40:00,29.0,27.0,30.21,SE,145,0.0,0.0,92,0.00,,---,0.00,VWS V14.01,2013-02-26 02:40:00,
2013-02-25 21:45:00,28.9,26.9,30.21,SE,145,0.0,0.0,92,0.00,,---,0.00,VWS V14.01,2013-02-26 02:45:00,
2013-02-25 21:50:00,28.9,27.1,30.20,SE,145,0.0,0.0,93,0.00,,---,0.00,VWS V14.01,2013-02-26 02:50:00,
2013-02-25 21:55:00,28.9,27.1,30.20,SE,145,0.0,0.0,93,0.00,,---,0.00,VWS V14.01,2013-02-26 02:55:00,
2013-02-25 22:00:00,28.9,27.1,30.20,SE,145,0.0,0.0,93,0.00,,---,0.00,VWS V14.01,2013-02-26 03:00:00,
2013-02-25 22:05:00,29.0,27.2,30.19,SE,145,0.0,0.0,93,0.00,,---,0.00,VWS V14.01,2013-02-26 03:05:00,
2013-02-25 22:10:00,29.0,27.2,30.19,SE,145,0.0,0.0,93,0.00,,---,0.00,VWS V14.01,2013-02-26 03:10:00,
2013-02-25 22:15:00,29.0,27.2,30.20,SE,145,0.0,0.0,93,0.00,,---,0.00,VWS V14.01,2013-02-26 03:15:00,
2013-02-25 22:20:00,29.0,27.2,30.20,SE,145,0.0,0.0,93,0.00,,---,0.00,VWS V14.01,2013-02-26 03:20:00,
2013-02-25 22:25:00,29.0,27.2,30.20,SE,145,0.0,0.0,93,0.00,,---,0.00,VWS V14.01,2013-02-26 03:25:00,
2013-02-25 22:30:00,29.0,27.2,30.20,SE,145,0.0,0.0,93,0.00,,---,0.00,VWS V14.01,2013-02-26 03:30:00,
2013-02-25 22:35:00,29.0,27.2,30.20,SE,145,0.0,0.0,93,0.00,,---,0.00,VWS V14.01,2013-02-26 03:35:00,
2013-02-25 22:40:00,29.1,27.6,30.20,SE,145,0.0,0.0,94,0.00,,---,0.00,VWS V14.01,2013-02-26 03:40:00,
2013-02-25 22:45:00,29.1,27.6,30.20,SE,145,0.0,0.0,94,0.00,,---,0.00,VWS V14.01,2013-02-26 03:45:00,
2013-02-25 22:49:00,29.0,27.5,30.20,SE,145,0.0,0.0,94,0.00,,---,0.00,VWS V14.01,2013-02-26 03:49:00,
2013-02-25 22:55:00,29.0,27.5,30.20,SE,145,0.0,0.0,94,0.00,,---,0.00,VWS V14.01,2013-02-26 03:55:00,
2013-02-25 23:00:00,29.1,27.6,30.19,SE,145,0.0,0.0,94,0.00,,---,0.00,VWS V14.01,2013-02-26 04:00:00,
2013-02-25 23:04:00,29.1,27.6,30.20,SE,145,0.0,0.0,94,0.00,,---,0.00,VWS V14.01,2013-02-26 04:04:00,
2013-02-25 23:09:00,29.0,27.5,30.20,SE,145,0.0,0.0,94,0.00,,---,0.00,VWS V14.01,2013-02-26 04:09:00,
2013-02-25 23:14:00,29.1,27.6,30.20,SE,145,0.0,0.0,94,0.00,,---,0.00,VWS V14.01,2013-02-26 04:14:00,
2013-02-25 23:19:00,29.0,27.5,30.21,SE,145,0.0,0.0,94,0.00,,---,0.00,VWS V14.01,2013-02-26 04:19:00,
2013-02-25 23:24:00,29.0,27.5,30.21,SE,145,0.0,0.0,94,0.00,,---,0.00,VWS V14.01,2013-02-26 04:24:00,
2013-02-25 23:29:00,29.0,27.5,30.21,SE,145,0.0,0.0,94,0.00,,---,0.00,VWS V14.01,2013-02-26 04:29:00,
2013-02-25 23:30:00,29.0,27.5,30.21,SE,145,0.0,0.0,94,0.00,,---,0.00,VWS V14.01,2013-02-26 04:30:00,
2013-02-25 23:34:00,28.9,27.4,30.20,SE,145,0.0,0.0,94,0.00,,---,0.00,VWS V14.01,2013-02-26 04:34:00,
2013-02-25 23:39:00,28.9,27.4,30.20,SE,145,0.0,0.0,94,0.00,,---,0.00,VWS V14.01,2013-02-26 04:39:00,
2013-02-25 23:44:00,28.8,27.3,30.20,SE,145,0.0,0.0,94,0.00,,---,0.00,VWS V14.01,2013-02-26 04:44:00,
2013-02-25 23:49:00,28.7,27.2,30.19,SE,145,0.0,0.0,94,0.00,,---,0.00,VWS V14.01,2013-02-26 04:49:00,
2013-02-25 23:54:00,28.7,27.2,30.19,SE,145,0.0,0.0,94,0.00,,---,0.00,VWS V14.01,2013-02-26 04:54:00,
2013-02-25 23:59:00,28.6,27.1,30.18,SE,145,0.0,0.0,94,0.00,,---,0.00,VWS V14.01,2013-02-26 04:59:00,